User: anonymous   Login
Location: Arezzo
(43.4170°N, 11.8830°E)
Time: 05:09:10
(UTC+02:00)
Language:

STARLINK-2711 - Orbit

View from above orbital plane
View from above orbital plane
View from above satellite
View from above satellite

Ground track
Ground track

The orbit data is extracted from the following two-line orbital elements,

1 48673C 21044AM  21268.73039076 -.00009609  00000-0 -64386-3 0  2688
2 48673  53.0539 210.8206 0001754  71.1039 342.4041 15.06404484    17
Epoch (UTC): 25 September 2021 17:31:45
Eccentricity: 0.0001754
inclination: 53.0539°
perigee height: 546 km
apogee height: 548 km
right ascension of ascending node: 210.8206°
argument of perigee: 71.1039°
revolutions per day: 15.06404484
mean anomaly at epoch: 342.4041°
orbit number at epoch: 1

The dashed part of the orbit path shows where the satellite is in the earth's shadow,  

DLR